Theta_e
311 313 314 314 315 315 315 314 314 314 313 311 312 313 313 313 313 313 313 313 311 310 311 311 312 312 312 312 313 313 313 313 313 313 313 314 313 314 314 314 314 313 312 312 312 313 313 313 313 312 313 313 313 313 313 313 313 312 312 312 312 312 312 312 312 313 313 313 313 313 314 314 314 314 314 314 314 314 314 314 313 313 312 310 309 308
310 314 315 314 315 314 313 312 312 312 311 311 312 313 313 313 313 313 313 313 311 310 311 311 311 312 312 312 312 313 313 313 314 314 314 314 314 314 314 314 313 312 312 313 313 313 313 313 313 313 313 313 313 313 312 312 312 312 312 312 311 311 311 311 311 311 312 312 312 313 313 313 314 314 314 314 314 314 314 314 314 313 312 311 309 308
312 314 314 314 314 312 310 309 310 310 311 312 312 312 313 313 313 313 313 312 309 309 311 311 311 311 311 312 312 313 313 313 313 314 314 314 314 315 314 313 312 312 312 313 313 312 312 313 313 313 313 312 312 312 312 312 312 312 312 311 311 311 310 310 310 310 311 311 311 312 312 312 313 313 313 313 314 314 314 314 313 313 312 311 309 308
316 315 313 314 313 311 310 310 309 310 311 312 312 313 313 313 314 314 313 311 309 309 311 311 311 312 313 313 313 313 313 313 313 313 314 314 314 314 313 312 311 312 313 313 313 312 312 312 313 313 313 312 312 312 312 312 312 311 311 311 311 310 310 310 310 310 310 310 310 310 310 311 311 311 312 312 312 313 313 313 313 313 313 312 310 309
317 314 311 311 312 310 311 311 310 311 312 313 313 313 313 314 314 313 313 311 310 311 310 310 313 315 315 315 314 314 313 312 314 314 314 314 313 312 311 311 311 312 313 313 312 311 312 312 313 313 312 313 312 312 312 312 312 312 311 311 311 311 310 310 309 309 309 309 309 309 309 309 309 309 310 310 311 311 312 312 312 312 312 312 311 310
315 312 309 311 311 310 311 311 312 312 313 314 314 313 313 313 313 313 313 312 312 313 311 311 315 316 315 315 315 316 314 314 316 316 315 315 313 312 311 311 311 312 312 311 311 311 312 312 312 312 312 312 312 312 312 312 312 312 312 312 311 311 311 310 310 310 309 309 309 308 308 308 308 309 309 310 310 310 311 311 311 312 312 312 311 310
313 311 309 311 312 311 311 311 313 313 312 314 315 314 313 312 313 313 313 312 312 314 311 310 314 315 315 315 315 315 315 315 316 316 317 316 314 312 311 310 311 311 311 310 310 311 312 312 311 311 311 311 311 311 311 312 312 312 312 312 311 311 310 310 310 310 309 309 309 309 308 308 308 308 309 309 309 309 310 310 310 311 311 311 311 311
311 310 309 310 312 312 312 312 314 313 312 314 315 314 313 312 313 313 312 312 312 312 311 310 312 314 315 315 314 314 315 315 316 316 317 316 313 311 310 310 310 310 310 309 310 311 311 310 310 310 311 311 311 311 312 312 312 312 312 312 311 311 310 310 309 309 309 309 309 309 308 308 308 308 308 308 308 308 309 309 309 310 310 310 310 310
310 312 312 311 311 312 312 314 314 312 312 314 311 309 311 311 311 311 311 311 311 311 313 312 312 314 317 315 312 312 314 316 316 316 316 315 312 311 310 310 309 309 309 309 310 310 309 309 310 310 310 311 311 312 313 313 313 312 312 312 311 311 310 310 309 309 308 308 308 308 308 308 308 308 308 307 308 308 308 308 308 308 308 309 309 309
310 310 311 312 313 313 313 313 312 313 313 311 309 309 310 310 310 310 311 311 311 312 315 314 312 315 318 317 313 312 314 316 317 315 315 313 311 310 310 309 309 309 308 308 308 308 308 308 309 309 309 310 311 311 312 312 312 312 312 312 312 311 310 309 309 308 308 307 307 307 307 307 307 307 307 307 307 307 307 307 307 308 308 308 308 308
309 307 307 310 312 312 312 310 308 311 311 308 309 311 311 311 309 309 310 310 312 315 316 314 313 315 317 318 316 314 314 314 315 314 314 314 311 309 309 308 308 308 307 307 307 307 307 308 308 308 308 309 310 311 312 312 312 312 312 312 312 311 311 310 309 308 307 307 306 306 306 306 306 306 306 306 306 306 306 306 307 307 307 307 308 307
309 307 308 310 309 309 311 310 306 306 307 308 310 311 312 312 311 310 311 311 315 319 316 313 313 314 316 317 315 314 313 311 311 312 313 314 312 308 308 307 307 307 306 306 306 307 307 307 307 308 308 309 310 310 311 311 311 311 311 311 311 311 311 311 310 309 308 307 306 305 305 305 305 305 305 305 305 305 305 305 305 306 306 306 306 307
311 311 310 310 308 308 310 311 308 306 307 309 310 310 312 314 315 316 315 314 317 318 312 309 312 313 315 316 314 314 314 312 311 312 313 313 310 307 307 306 305 305 306 306 306 306 306 305 305 306 306 308 308 309 309 310 310 310 310 311 310 311 311 311 310 310 309 309 307 306 305 304 304 304 304 304 304 304 304 304 304 304 305 305 305 306
316 314 310 309 310 309 310 311 312 311 309 309 310 311 314 316 318 321 319 316 317 317 310 307 311 313 314 315 314 314 314 312 311 311 311 309 307 306 306 304 303 303 303 303 304 304 304 304 304 305 305 306 307 308 308 308 308 309 309 310 310 310 309 310 309 309 310 309 309 308 306 305 304 303 303 303 303 303 304 304 304 304 304 304 304 305
318 317 313 313 314 311 310 312 316 315 310 309 311 312 315 318 321 321 321 319 320 319 312 308 312 316 316 315 312 312 312 311 310 309 307 306 306 306 304 302 301 301 301 301 301 302 302 303 304 304 304 305 305 306 306 306 307 307 308 308 308 309 309 309 309 309 309 309 309 308 307 306 304 303 303 303 303 303 303 303 303 303 303 303 304 304
316 318 315 312 311 310 310 312 314 315 312 310 310 311 313 316 319 318 319 320 319 319 316 312 314 315 315 315 313 313 313 310 309 308 307 306 305 303 301 300 299 298 299 300 300 300 301 302 302 302 303 303 304 304 304 304 304 305 306 306 307 307 308 308 309 309 309 308 308 308 308 307 306 304 303 303 303 302 302 302 302 302 302 302 303 303
314 316 314 310 308 308 308 309 310 312 313 310 309 311 313 314 316 315 316 317 316 316 318 316 316 315 315 316 314 315 313 309 308 307 306 305 303 301 300 298 297 297 297 298 299 299 299 300 300 300 300 300 301 301 300 300 301 302 303 304 304 305 306 307 308 308 308 308 308 307 307 307 306 305 304 302 302 302 301 302 302 302 302 302 302 302
314 315 315 312 312 309 304 306 309 309 310 310 310 312 313 312 312 312 314 316 316 316 318 317 317 317 317 317 315 313 312 310 307 305 303 303 301 300 298 297 297 296 296 297 297 297 298 298 298 298 298 298 297 297 298 298 298 299 300 301 302 303 304 305 306 307 307 307 307 307 306 306 306 306 305 303 301 301 300 301 301 301 301 301 301 301
313 315 316 313 312 310 305 307 310 308 308 309 310 310 311 312 313 313 314 315 316 317 317 317 317 317 317 317 316 314 312 309 306 303 302 300 300 299 298 297 296 295 296 296 296 296 296 296 296 296 296 295 295 296 296 296 297 298 299 300 301 301 302 303 303 304 305 306 306 306 306 305 305 304 304 303 303 302 301 300 300 300 300 300 300 300
312 315 316 313 310 310 308 309 311 310 309 308 309 309 309 311 312 313 313 313 316 317 317 318 318 317 317 316 314 311 308 307 305 302 300 299 299 298 297 296 295 295 295 295 295 295 295 295 295 294 294 294 294 294 295 295 296 297 297 298 298 299 299 300 301 302 303 303 304 304 305 305 304 303 303 303 303 303 302 301 300 300 300 300 300 299
313 313 315 314 312 311 311 312 312 312 311 310 310 310 310 310 311 312 311 312 314 315 317 318 317 317 317 315 310 306 304 304 303 301 300 299 298 297 296 296 294 294 294 295 295 295 295 295 295 295 295 295 295 295 295 295 296 296 296 296 296 296 297 298 298 299 299 300 301 302 303 303 304 304 303 303 303 303 303 302 301 300 300 299 299 299
313 313 314 314 313 313 314 314 312 312 313 312 312 312 312 312 312 313 313 313 313 314 315 315 316 317 314 309 305 302 302 302 301 300 299 298 297 296 296 295 295 295 295 295 295 295 296 296 296 296 296 296 297 297 296 296 296 296 296 296 296 295 296 296 296 296 297 298 299 300 300 301 302 302 303 303 303 303 302 302 302 301 301 300 299 299
311 312 313 313 313 313 314 314 312 312 313 312 312 312 313 313 313 314 315 314 314 314 314 314 315 315 309 303 302 301 299 300 300 299 299 297 296 296 295 294 294 295 295 295 295 296 296 296 297 297 297 297 297 297 297 297 297 297 297 297 297 296 295 295 295 295 295 295 296 297 298 299 300 301 301 302 302 302 302 302 301 301 301 301 300 299
309 310 312 313 313 312 313 312 310 310 311 311 312 311 312 312 312 312 312 312 312 313 314 314 315 315 308 301 301 300 298 298 297 297 297 296 295 295 294 294 293 293 294 295 295 295 296 296 297 297 298 298 298 297 297 297 297 297 296 296 296 296 296 295 295 295 295 295 295 295 296 297 299 300 301 301 301 301 302 302 302 301 301 301 301 300
308 310 312 312 313 313 312 312 311 310 310 311 310 310 310 311 311 310 310 310 311 312 314 313 314 316 311 303 300 299 298 297 296 296 296 295 295 295 294 294 293 293 294 294 295 295 295 295 295 296 296 296 296 296 296 296 296 296 295 295 294 294 295 295 295 295 295 295 295 295 295 295 296 298 299 300 300 299 300 300 301 302 302 301 301 300
307 310 311 311 312 312 312 312 312 311 310 309 309 309 309 309 309 309 309 310 311 312 312 312 312 313 312 307 305 303 300 298 297 295 295 295 294 294 294 293 293 293 293 293 294 294 294 294 294 293 293 293 293 293 293 293 293 293 293 293 292 292 292 292 293 293 293 293 293 294 294 294 294 294 295 296 298 298 299 299 299 300 301 301 301 300
306 308 310 310 311 310 310 310 310 310 309 308 308 308 308 308 307 307 307 308 309 309 309 309 309 309 309 307 308 307 303 299 297 296 295 295 294 294 294 293 292 292 292 292 292 292 292 292 292 292 292 291 291 291 291 291 291 291 291 291 291 290 290 290 290 290 290 291 291 291 291 292 292 292 292 293 294 295 297 297 298 298 299 300 301 301
305 307 308 309 309 308 309 308 308 306 306 306 307 306 306 306 306 306 306 306 306 306 306 307 307 307 306 305 307 305 300 297 296 296 295 294 294 294 294 294 293 292 292 291 291 291 291 291 291 290 290 290 290 290 289 289 289 289 290 290 290 289 289 289 289 289 289 289 289 289 289 290 290 290 290 291 291 292 293 294 296 297 297 298 299 300
303 304 306 306 306 306 306 305 305 304 304 304 304 304 304 304 305 305 304 304 305 305 305 305 304 305 305 304 304 300 296 295 295 294 294 294 294 294 294 294 294 293 292 292 291 291 291 291 290 290 290 289 289 289 289 288 288 288 288 288 288 288 288 288 288 288 288 288 288 288 288 288 288 289 289 289 290 290 291 292 292 293 295 296 297 298
302 303 304 303 302 303 302 302 302 302 302 301 301 302 302 302 302 303 303 303 303 303 304 303 303 304 303 301 300 297 294 294 294 293 293 293 293 294 294 294 294 294 293 292 292 291 290 290 290 290 290 290 289 289 288 288 288 288 288 288 288 288 288 287 288 287 287 287 287 287 287 287 287 287 287 288 288 289 289 290 291 291 292 293 294 296
301 302 301 300 300 300 300 301 301 300 300 299 299 299 299 300 300 300 300 301 301 301 302 301 301 302 299 296 296 295 294 294 293 293 293 293 293 293 293 294 294 294 293 292 291 290 290 290 290 290 290 290 290 289 288 288 288 288 287 288 288 287 287 287 287 287 287 287 287 287 287 287 287 287 287 287 287 287 288 288 289 289 290 291 292 293
299 299 299 299 299 300 300 299 299 298 297 296 296 297 297 297 298 298 299 300 300 300 300 299 300 300 298 295 294 294 294 293 293 293 293 293 293 293 293 293 293 293 292 291 290 290 289 290 290 290 290 290 290 289 289 288 288 288 287 287 287 287 287 287 287 287 287 287 287 287 287 287 287 287 287 287 287 287 287 287 287 288 288 289 290 291
298 298 298 298 298 299 299 297 295 295 295 295 295 296 296 296 296 297 297 298 298 298 299 299 298 296 295 295 293 293 293 293 292 292 292 292 292 292 292 292 292 291 291 290 290 289 289 289 289 289 290 290 290 289 289 288 288 288 287 287 287 287 287 287 287 287 287 287 287 287 286 286 286 287 287 287 287 287 286 286 287 287 287 287 288 289
297 297 297 297 298 297 296 295 294 294 294 295 297 297 296 296 296 296 296 297 298 298 297 298 296 294 294 295 293 292 292 292 292 292 291 291 291 292 291 291 291 291 290 289 289 289 289 289 289 289 289 289 289 289 289 289 288 288 287 287 287 287 287 287 287 287 287 287 287 286 286 286 286 286 286 286 286 286 286 286 286 286 286 286 287 287
296 296 295 295 295 294 293 293 293 294 294 295 296 296 296 296 297 296 297 298 298 296 296 296 295 293 294 294 293 292 292 292 292 292 291 291 291 291 291 290 291 291 290 289 289 289 289 289 289 289 289 289 289 289 289 289 288 288 288 287 287 287 287 287 287 287 287 287 287 286 286 286 286 286 286 286 286 286 286 286 286 286 286 286 286 286
295 295 294 293 293 293 293 293 294 294 294 294 295 295 295 296 296 296 297 297 296 295 296 297 295 294 294 293 293 293 293 293 293 292 291 291 291 291 290 290 291 291 290 290 290 290 289 289 289 289 289 289 289 289 289 288 288 288 288 288 287 287 287 286 286 286 286 286 287 286 286 286 286 286 286 286 286 286 286 286 286 286 285 285 286 286
294 294 293 292 292 292 293 293 294 294 294 294 294 295 295 296 296 295 296 296 296 295 294 294 294 293 293 293 292 292 293 293 293 292 292 291 291 290 290 290 290 291 290 290 290 290 290 290 289 289 289 289 289 289 289 288 288 288 287 287 287 287 287 286 286 286 286 286 286 286 286 286 286 286 286 286 285 285 285 285 285 285 285 285 285 285
293 294 293 292 293 293 292 293 294 293 293 294 294 294 294 294 294 294 294 295 297 295 293 292 292 292 292 292 291 292 293 292 291 292 292 292 291 290 290 290 290 290 290 290 290 290 290 290 289 289 289 289 289 289 289 288 287 286 286 286 286 286 286 286 286 285 285 285 285 285 285 285 285 285 285 285 285 285 285 285 285 285 285 285 285 285
292 293 293 293 293 294 293 294 294 294 294 294 295 294 292 292 293 294 293 294 294 293 291 291 291 292 292 292 291 292 292 291 291 292 292 291 290 290 289 289 289 290 290 290 290 290 290 290 289 289 289 289 289 289 288 287 286 286 286 286 285 285 285 285 285 284 284 283 283 283 283 284 284 284 284 285 285 285 285 285 285 285 285 285 285 285
292 293 293 293 293 294 293 294 294 293 294 294 295 294 292 292 292 293 293 292 292 291 291 290 291 291 291 291 291 291 291 291 291 291 291 291 290 289 289 289 289 289 289 290 290 290 290 289 289 289 289 289 288 287 287 286 285 285 285 285 284 284 284 283 283 283 282 282 282 282 282 282 282 283 283 284 284 284 284 284 284 284 284 284 285 285
290 291 292 292 293 293 293 293 293 293 293 294 294 294 292 292 292 292 292 292 291 290 291 290 290 290 290 291 291 291 291 291 291 291 291 290 289 289 289 289 289 289 289 289 289 289 289 289 288 288 288 288 287 287 286 285 285 285 284 284 283 283 283 282 281 281 280 281 281 281 281 281 281 282 282 282 283 283 283 284 284 284 284 284 284 284
288 289 290 291 292 292 292 293 292 292 293 293 293 293 291 291 292 293 292 291 290 290 290 289 289 290 290 290 290 290 290 290 290 290 290 289 289 289 289 289 289 289 288 289 289 288 288 287 287 287 287 287 287 286 285 284 283 283 283 282 282 282 281 280 280 279 279 279 280 280 280 280 280 280 280 281 281 281 282 283 283 283 283 283 284 284
290 290 289 290 291 291 291 292 291 291 292 292 292 291 291 292 293 292 291 291 290 290 290 290 290 290 290 290 290 290 290 289 289 289 289 288 288 289 288 288 288 288 288 288 288 287 286 286 286 286 286 286 285 284 283 282 281 281 281 281 281 279 279 279 278 278 278 278 278 278 278 278 279 279 279 279 279 279 280 281 282 283 283 283 283 283
290 290 290 290 290 290 290 291 291 291 291 291 291 291 292 292 292 291 291 291 290 290 290 290 290 290 289 289 289 289 289 289 288 288 288 288 288 288 288 287 287 287 287 286 286 285 285 284 284 284 284 284 283 282 282 281 280 279 279 279 278 277 277 277 277 276 276 277 276 276 276 276 276 276 276 277 277 276 277 278 279 280 281 282 282 282
291 291 291 290 291 290 290 291 291 291 291 291 291 291 291 291 291 291 290 290 290 290 290 289 289 289 289 289 288 288 288 288 288 288 287 287 287 287 286 286 286 285 285 285 284 284 283 283 282 282 282 283 282 281 281 280 278 277 277 276 275 274 274 275 275 275 275 275 275 274 274 274 274 274 274 274 275 274 275 275 276 276 278 279 280 280
291 291 290 290 291 291 291 291 291 291 291 291 291 291 290 290 290 290 290 290 290 289 289 289 289 289 288 288 287 287 287 287 287 286 286 286 286 285 285 285 284 284 283 283 282 282 281 281 281 281 282 282 282 280 279 277 275 274 274 274 273 273 273 273 273 273 273 273 273 273 272 272 272 272 272 272 272 272 272 273 273 273 274 275 276 277
290 290 289 289 290 290 289 290 290 290 291 290 290 290 290 290 290 290 289 289 289 289 289 288 288 288 287 287 286 286 286 285 285 285 285 284 284 284 283 283 283 282 282 281 281 281 281 281 281 280 280 281 280 279 277 276 274 273 273 273 272 272 272 272 271 271 272 272 271 271 271 270 270 270 270 270 270 269 270 270 271 271 272 272 273 274
290 289 289 289 289 289 289 290 290 290 290 290 290 290 290 289 290 290 289 289 289 289 288 288 287 286 286 286 285 285 285 284 283 283 283 283 282 282 282 282 281 281 281 281 280 280 280 279 279 278 278 278 277 276 275 275 274 273 272 272 271 271 271 270 270 269 269 269 268 268 267 267 267 267 267 267 267 267 268 269 269 270 270 271 271 272
289 289 288 289 289 289 289 290 290 290 290 290 290 289 289 289 289 289 289 289 289 288 288 287 286 286 285 285 284 284 284 283 282 282 282 282 281 281 281 281 280 280 280 280 280 280 278 277 276 276 276 276 275 274 274 273 273 272 272 272 271 269 268 268 267 266 266 265 264 264 264 264 263 264 264 264 265 265 266 267 268 268 269 270 270 271
289 288 288 288 288 289 289 289 290 289 289 290 290 289 289 289 289 289 289 288 288 287 287 287 286 286 285 284 283 283 282 282 281 281 281 281 280 280 280 280 280 280 279 279 279 278 277 275 275 274 275 274 274 273 273 273 273 273 272 271 269 267 266 265 264 264 263 263 262 262 262 262 262 262 262 263 263 263 264 265 265 266 267 268 269 270
289 289 289 289 289 289 290 290 290 289 289 290 289 289 288 288 288 288 288 287 287 287 286 286 286 285 284 283 282 282 281 281 280 280 280 280 279 279 279 278 278 278 278 277 276 276 275 275 274 273 274 273 273 272 272 272 272 272 271 269 267 265 264 263 262 262 262 262 262 262 262 262 262 262 262 262 262 263 263 263 264 264 265 266 267 268
Wind_Speed
6 5 5 7 9 12 12 11 14 12 7 6 6 8 10 11 12 12 15 13 4 7 11 13 18 19 18 17 17 23 25 25 28 28 27 28 28 29 31 25 15 12 15 19 24 23 19 17 14 12 10 9 8 8 9 11 13 14 16 19 21 24 27 30 33 36 38 40 42 44 44 45 46 48 49 50 50 51 51 51 50 50 50 50 50 48
4 7 7 10 13 9 5 4 7 9 9 10 9 11 11 10 14 13 15 15 4 3 8 9 17 19 17 19 20 24 23 21 23 23 23 28 31 29 21 11 7 13 20 21 19 14 9 7 6 6 6 6 6 6 6 7 9 11 13 16 18 21 24 27 31 34 36 39 41 42 42 43 45 47 49 49 50 51 51 52 52 53 53 53 52 50
5 7 9 14 13 3 1 1 3 8 10 10 8 9 10 8 12 12 10 10 2 2 8 11 16 16 18 23 22 20 17 19 24 22 25 31 30 19 9 10 15 19 20 16 11 9 9 8 7 7 8 9 9 9 9 9 9 10 11 13 16 18 20 23 27 30 32 35 38 39 41 43 45 46 48 49 51 51 52 53 54 55 56 55 53 52
5 5 9 15 12 6 8 5 4 8 8 8 8 8 9 7 9 8 4 2 2 4 10 13 15 13 15 15 12 13 12 15 22 24 31 32 22 14 12 14 15 13 11 9 8 10 10 10 11 12 14 15 15 15 16 15 14 13 12 12 13 16 18 20 23 25 27 31 34 36 39 42 44 46 47 48 50 51 53 55 56 57 57 56 55 54
8 2 3 6 7 9 12 7 6 9 8 9 9 8 11 11 12 12 7 6 7 7 5 10 12 7 4 0 2 4 5 7 17 24 24 15 8 9 9 8 8 8 7 7 9 12 15 17 20 21 21 22 22 22 22 21 21 19 16 13 11 13 15 17 19 20 23 27 30 33 37 39 43 45 46 48 49 51 53 55 56 57 57 57 56 56
9 4 3 4 4 7 8 8 9 10 8 8 8 11 16 15 14 16 12 7 7 5 1 7 10 3 2 2 2 5 5 7 15 18 11 4 6 6 6 7 8 8 7 9 11 17 22 24 24 24 24 24 23 23 23 24 24 23 22 18 14 10 10 12 14 15 18 22 25 29 32 35 39 42 44 46 48 50 51 52 54 56 56 56 56 57
5 3 2 3 4 5 6 9 11 10 8 8 4 9 13 13 12 12 10 5 4 4 2 3 6 6 5 5 5 8 9 12 15 13 8 7 8 7 7 7 7 10 9 11 16 21 24 24 24 23 22 22 21 21 22 24 25 25 24 22 19 15 12 10 10 13 15 18 21 24 27 29 33 36 38 41 43 45 46 48 49 51 53 54 55 57
3 2 2 2 5 5 6 9 8 9 8 6 1 1 5 7 8 6 5 5 4 6 2 4 6 8 8 4 3 5 8 13 14 9 7 8 12 12 11 11 11 12 14 16 19 22 24 23 22 21 20 19 19 21 23 25 25 25 24 23 22 19 16 13 11 11 13 16 20 22 24 26 29 31 34 37 39 40 42 45 46 47 49 50 52 55
3 5 5 6 6 6 8 5 4 10 7 2 4 2 0 1 3 2 3 5 3 5 4 5 6 7 8 2 3 2 7 11 9 5 4 9 13 14 16 17 17 19 19 18 20 22 22 21 21 20 18 17 18 20 23 25 25 24 23 23 22 20 18 16 14 12 12 14 17 20 23 25 27 29 31 34 36 37 39 41 43 44 46 47 49 50
1 3 5 7 6 6 6 0 3 9 5 1 4 2 3 2 1 1 3 4 3 6 6 6 8 6 9 1 5 2 5 5 3 0 3 8 11 15 21 22 23 24 22 20 21 21 20 20 19 17 16 15 17 20 23 25 25 24 23 23 22 21 19 17 15 14 13 13 15 18 21 24 25 28 30 32 34 36 38 39 40 42 43 44 46 47
1 2 1 5 8 4 3 3 1 3 2 3 4 0 0 2 1 1 2 2 4 8 4 9 13 9 6 0 4 2 0 2 3 3 4 5 12 18 23 23 23 26 26 23 21 20 20 19 15 15 16 17 18 21 23 24 24 23 23 23 22 21 19 18 16 15 14 14 15 17 20 22 24 26 29 31 33 36 38 39 39 40 41 41 42 43
3 3 2 4 7 3 4 2 1 3 2 2 1 2 3 2 1 2 1 1 4 6 0 4 6 8 9 2 1 2 2 2 4 6 11 9 14 18 19 20 24 27 27 24 21 20 19 17 16 17 19 20 21 23 23 23 22 21 22 22 22 22 21 20 18 17 16 15 15 16 19 22 23 25 28 29 31 34 37 38 39 41 41 41 41 41
4 6 3 1 4 6 5 2 1 2 2 2 1 0 3 3 2 3 2 2 5 4 1 1 1 6 11 5 4 10 7 1 2 5 10 11 14 15 16 21 26 27 26 24 22 21 20 21 22 22 24 25 25 25 23 22 20 20 20 20 21 21 21 21 20 19 18 17 16 15 17 20 22 25 27 28 30 32 34 37 39 40 41 41 42 41
3 2 5 3 3 9 11 6 4 3 5 6 5 4 3 2 3 5 2 2 5 2 2 1 2 5 8 6 7 12 7 7 9 10 7 10 14 15 19 24 27 27 26 25 24 22 23 24 24 25 26 27 26 25 23 21 20 19 19 19 19 19 19 20 20 20 20 20 18 16 14 15 19 22 24 27 29 30 32 34 36 39 39 40 41 40
5 5 5 6 2 10 14 9 3 3 4 7 4 3 4 3 4 5 3 4 7 5 1 2 2 4 4 1 1 2 4 9 11 10 12 17 17 19 23 25 27 27 26 26 26 25 25 24 24 25 25 26 26 25 23 22 22 20 20 20 20 20 20 20 20 21 21 21 21 19 16 13 14 18 20 23 25 28 30 32 34 36 37 38 38 39
7 7 2 2 1 9 11 5 3 4 2 3 2 1 4 3 4 5 5 5 6 6 3 4 3 5 5 4 8 8 3 10 12 16 19 19 18 21 23 23 24 26 25 26 26 26 26 25 25 25 25 25 24 24 23 23 23 22 22 21 20 20 20 20 21 21 22 22 22 21 20 17 14 15 17 19 21 23 27 29 32 34 35 36 37 38
5 5 2 3 1 5 2 1 2 1 1 2 3 4 2 0 2 4 5 2 1 5 5 4 6 7 7 8 9 7 5 12 12 15 17 15 15 18 19 18 21 24 26 26 26 26 25 25 25 25 25 25 24 24 24 24 24 24 23 22 21 20 20 20 20 21 22 22 23 23 22 21 18 16 15 17 19 20 23 26 28 30 33 34 35 36
3 5 2 3 2 2 1 2 1 1 0 3 3 2 0 1 1 2 3 1 3 7 4 5 12 10 7 6 2 6 9 10 9 10 12 12 14 17 16 16 20 23 24 25 26 25 25 25 25 25 24 24 24 24 23 24 24 23 23 23 23 24 24 23 22 22 22 22 23 23 23 23 22 20 17 16 17 18 21 23 24 26 29 31 32 34
2 6 4 2 1 1 2 1 2 1 0 1 1 2 0 2 3 3 3 2 5 8 4 6 12 9 7 9 3 4 6 8 8 8 9 11 14 14 14 15 19 22 23 24 25 25 26 26 26 26 25 25 25 24 25 25 24 24 25 25 26 26 25 24 23 22 21 21 22 23 23 23 23 22 20 18 17 17 19 21 22 24 26 27 29 31
1 4 5 1 1 1 3 3 4 3 2 1 1 1 1 1 3 2 1 1 5 8 7 7 8 7 7 6 1 6 7 8 8 9 9 10 11 10 10 11 15 19 21 22 23 24 25 25 26 27 27 27 28 28 29 29 29 29 29 28 28 26 25 24 24 23 22 22 22 22 22 23 23 23 22 20 19 19 18 19 20 22 24 25 27 29
0 3 5 1 0 2 3 4 3 4 4 3 3 2 1 1 1 2 2 2 4 8 8 7 7 6 4 2 8 9 7 7 7 7 6 7 9 9 8 10 14 18 19 20 21 22 22 23 24 24 25 27 28 30 30 31 32 32 31 31 30 29 28 27 26 25 24 24 24 24 24 24 24 23 23 23 22 21 21 19 19 19 20 23 25 27
2 3 5 5 3 6 6 2 3 3 3 2 3 4 6 5 4 7 7 6 6 6 5 7 9 6 0 4 8 9 7 7 6 6 6 6 7 7 9 12 15 17 18 18 18 19 20 20 21 21 23 24 25 26 28 29 30 30 31 31 31 30 30 29 28 27 26 25 24 25 25 25 25 24 24 24 23 23 23 22 21 20 20 21 23 24
2 1 5 8 7 10 10 2 3 2 3 4 6 7 9 9 7 9 10 6 5 6 4 7 10 5 1 4 7 9 8 7 6 6 7 6 4 5 8 12 14 15 15 16 16 17 18 19 19 21 22 23 24 25 25 26 27 28 28 29 29 29 29 29 28 27 26 25 24 23 24 25 26 27 27 27 26 26 25 25 24 23 22 22 22 22
2 2 5 7 6 9 10 2 5 2 2 4 4 4 5 7 6 7 7 5 4 5 5 7 9 4 1 2 6 9 9 9 7 6 6 6 5 4 6 9 12 14 14 15 15 16 17 18 19 20 20 22 23 23 24 25 25 26 27 27 27 28 28 28 29 28 28 28 27 27 26 26 27 28 29 30 30 28 27 27 26 25 25 24 24 23
1 2 3 4 4 5 7 4 2 2 1 1 3 2 2 3 6 6 4 3 4 6 8 9 7 2 3 5 6 9 10 9 7 6 6 6 6 6 8 9 11 12 13 14 14 14 15 16 17 18 19 20 21 22 23 23 24 25 25 26 27 27 28 28 29 30 30 31 31 30 30 29 28 27 27 28 29 29 29 27 26 26 26 26 26 25
1 2 2 3 5 6 6 5 2 0 1 2 4 5 3 4 6 7 5 5 5 4 6 7 6 3 2 4 5 5 6 6 7 6 6 6 5 6 7 9 9 10 10 11 11 11 12 13 14 16 17 18 19 20 21 21 22 23 24 25 26 27 27 28 28 29 30 30 30 30 29 28 27 26 25 25 26 28 29 29 28 27 25 25 26 26
1 2 5 7 8 8 9 9 4 2 3 5 7 9 9 9 8 6 6 7 6 6 7 7 10 12 11 13 14 6 2 4 4 4 3 3 2 2 3 4 5 6 6 7 7 7 7 9 10 12 14 15 17 19 20 21 21 22 23 24 25 26 27 27 28 28 28 29 29 29 28 27 26 26 25 24 24 25 26 27 28 28 27 26 25 26
2 4 7 9 10 10 13 14 8 3 4 8 11 14 14 12 10 8 9 10 9 9 9 8 12 14 12 15 16 7 3 3 3 3 1 1 2 2 2 3 4 4 5 6 7 7 7 8 9 10 11 13 15 16 18 19 21 22 23 24 25 26 26 27 28 28 28 28 28 28 28 28 27 26 26 25 24 24 24 25 26 27 28 28 26 26
2 6 6 6 9 11 12 13 8 4 5 8 12 15 16 16 14 13 13 14 12 12 12 12 16 18 15 16 12 4 5 3 3 3 2 3 4 4 5 6 6 6 8 8 8 9 9 10 11 12 13 14 15 16 17 18 20 21 22 23 25 26 26 28 28 29 29 29 28 28 27 27 27 27 27 27 26 25 24 24 24 24 25 27 27 26
2 4 3 3 7 9 10 11 9 8 10 11 13 15 17 19 19 17 16 17 16 17 18 18 21 22 15 7 2 4 4 3 4 5 5 5 6 6 7 8 9 9 9 9 9 10 10 11 12 13 14 15 16 17 18 19 20 21 22 23 24 24 26 27 28 29 30 30 30 30 30 29 28 27 27 27 28 27 26 25 25 24 24 24 25 26
3 2 1 2 4 7 10 12 11 10 11 13 14 16 18 20 20 18 17 16 15 18 19 20 21 18 6 3 4 2 2 3 5 7 7 7 7 7 8 10 11 10 10 10 12 13 14 14 14 15 16 17 17 18 19 19 20 21 22 23 24 24 25 26 28 29 30 30 31 32 32 32 31 30 28 27 27 28 28 28 27 26 25 24 24 25
3 2 2 3 4 7 9 10 10 10 11 13 15 18 21 19 16 16 15 13 14 15 16 16 15 8 1 4 1 1 1 4 7 8 9 8 8 8 9 12 13 13 12 13 15 16 17 17 18 18 19 20 20 21 21 21 21 22 22 23 24 25 26 26 28 29 30 31 32 33 34 34 34 33 32 30 29 28 28 28 28 28 27 26 26 25
2 2 3 3 5 8 8 4 3 5 8 10 11 13 16 16 16 15 14 15 16 14 12 10 6 1 3 3 1 2 2 5 8 9 10 11 11 11 13 16 17 16 15 16 17 18 18 18 19 20 22 23 24 24 24 24 24 24 24 25 26 27 27 28 28 29 30 31 32 33 35 36 36 36 35 34 33 32 30 29 29 29 29 29 28 27
4 5 5 3 6 9 6 2 2 4 9 7 2 1 4 8 10 11 13 14 10 4 2 2 1 3 4 3 1 3 3 5 9 11 12 13 15 17 19 22 21 19 17 19 20 21 21 21 21 22 23 24 26 27 28 29 28 28 28 29 30 30 31 31 31 32 33 33 33 33 35 36 38 38 37 37 36 35 34 32 31 30 29 30 30 29
7 7 4 3 4 5 2 1 5 9 7 3 3 2 0 4 6 10 13 10 3 3 3 3 5 6 5 3 4 5 7 9 10 12 14 15 17 20 24 27 26 22 19 20 23 25 26 26 26 26 26 26 27 29 30 32 33 33 34 34 35 35 36 36 36 36 36 36 36 35 35 37 38 39 39 39 39 39 38 36 35 33 30 30 30 30
9 7 3 2 3 2 1 5 8 5 4 7 8 2 2 3 6 9 10 6 6 7 7 6 6 6 3 3 5 8 10 10 10 14 16 16 17 20 24 27 28 25 22 21 24 26 28 30 30 29 29 29 29 31 32 33 34 36 37 38 39 40 40 40 40 41 41 41 41 40 38 38 39 40 40 41 41 41 41 40 39 37 35 33 32 31
10 8 4 3 4 3 5 8 7 6 7 9 8 2 2 2 3 3 4 3 6 7 5 4 4 3 3 7 11 11 9 7 8 12 16 16 16 19 21 24 26 26 25 25 26 27 30 32 31 30 30 30 31 32 33 34 35 36 37 39 40 41 42 43 43 43 44 44 45 44 42 41 41 42 42 42 42 43 43 43 43 42 41 39 37 34
10 9 7 5 4 4 4 6 7 7 5 3 2 1 1 1 2 2 3 3 4 7 6 3 2 3 5 9 12 11 7 5 7 11 14 14 15 19 21 23 25 25 27 29 29 29 31 32 32 32 33 33 33 34 34 35 36 38 40 42 43 43 44 46 46 45 45 45 45 45 44 44 45 45 45 45 45 45 45 45 45 45 45 44 44 41
8 8 7 6 5 4 5 6 6 6 4 1 1 1 1 1 1 1 5 5 1 8 10 6 2 6 7 9 12 9 6 6 7 11 15 16 17 20 23 24 26 26 27 29 30 31 32 33 34 35 35 35 35 35 36 38 40 42 44 46 46 46 48 49 49 48 48 46 45 45 45 46 46 47 47 48 48 47 47 47 47 47 47 47 48 47
5 5 6 7 7 7 8 7 6 6 4 2 4 3 2 4 3 2 8 5 3 10 13 10 7 10 10 11 11 7 5 7 10 15 19 19 20 22 23 24 27 29 29 30 31 32 34 35 35 36 36 36 37 38 40 42 44 46 48 48 49 49 50 50 49 49 48 48 47 47 46 46 47 47 48 49 49 49 49 49 49 49 49 50 50 50
2 2 4 6 8 9 10 8 6 6 5 5 9 7 4 7 1 6 7 1 6 11 11 10 12 14 14 13 10 7 10 14 18 21 23 23 24 25 25 26 28 29 31 32 32 32 33 34 35 36 37 39 40 43 45 47 48 50 50 50 50 51 50 49 48 47 48 49 50 50 49 49 49 49 50 50 51 51 51 51 51 51 52 52 52 52
2 1 3 5 5 7 8 7 7 6 6 9 11 5 6 4 4 6 3 4 4 9 11 11 14 15 14 14 12 12 16 19 20 22 24 24 25 26 27 29 30 30 31 33 33 33 33 35 37 39 41 43 45 47 48 48 49 50 51 51 51 51 49 49 50 50 50 51 52 51 51 51 52 52 52 52 53 53 54 54 54 54 55 55 55 54
4 2 3 4 4 4 4 5 6 5 4 8 7 2 6 7 5 2 4 12 16 15 12 11 13 13 12 12 13 15 17 19 20 22 23 25 26 27 29 31 31 31 32 33 34 35 36 38 41 43 45 47 47 48 48 48 48 50 51 52 52 51 50 51 52 51 51 53 52 52 53 53 54 54 54 54 54 53 54 55 55 56 56 57 57 57
3 4 4 3 3 4 5 5 4 3 4 10 10 4 6 10 10 10 12 16 22 24 19 13 14 18 17 15 16 17 18 19 21 22 23 25 28 29 30 31 31 32 33 34 35 37 38 40 42 44 46 47 47 48 49 49 49 50 51 52 50 48 49 52 52 51 52 54 53 53 54 54 53 53 53 54 53 52 53 56 56 56 57 58 58 59
6 8 6 4 4 4 5 6 3 2 5 10 12 11 13 17 22 26 24 21 23 27 24 18 19 23 22 19 18 18 18 20 21 22 24 27 29 30 30 31 32 33 34 35 36 37 38 40 42 44 46 47 48 50 52 51 50 50 51 50 49 49 52 55 56 56 58 58 58 58 57 55 54 54 53 52 51 51 54 56 55 55 57 57 58 59
8 7 2 2 4 4 8 12 7 7 15 20 21 23 25 26 30 31 28 26 25 25 23 21 22 23 22 19 17 16 18 19 21 23 25 27 29 29 30 31 32 33 34 36 36 37 39 41 43 46 49 51 52 53 53 53 52 52 53 53 53 53 55 57 58 60 61 63 63 63 62 60 60 61 59 57 56 55 57 59 59 59 61 62 62 62
8 9 5 3 5 4 7 11 10 12 19 23 23 24 26 27 29 30 28 28 27 26 24 23 22 21 19 16 15 17 19 20 21 24 26 27 28 29 30 32 33 34 35 36 38 40 42 44 47 49 51 54 55 56 56 55 53 52 52 51 51 51 52 53 55 57 59 60 60 61 60 60 62 63 63 63 62 60 61 60 59 58 60 61 61 61
6 6 6 7 8 8 9 14 16 18 21 22 23 25 26 28 30 29 28 29 28 27 25 21 19 17 15 15 16 19 21 21 21 24 26 28 29 30 31 33 34 35 37 38 40 43 44 46 49 51 53 55 56 55 54 53 51 49 47 47 48 48 49 51 51 52 54 55 55 56 56 55 56 57 58 57 56 53 52 51 47 45 48 50 50 50
4 4 4 4 7 8 10 16 20 18 18 21 25 26 26 27 27 26 26 26 26 25 23 20 18 16 16 18 19 20 21 22 21 24 27 29 30 31 32 34 35 37 39 41 43 45 47 48 50 51 53 53 52 50 49 48 47 47 46 47 46 45 45 47 47 48 50 51 51 52 51 49 48 47 46 46 45 43 42 42 40 39 42 45 44 42
5 6 5 4 5 7 9 14 15 10 10 17 20 18 17 19 21 21 22 22 21 22 21 20 20 20 20 20 19 19 21 23 23 25 28 29 30 32 33 35 38 40 42 44 45 47 48 48 48 48 49 48 46 45 46 46 47 47 46 45 43 42 42 44 45 47 48 47 46 45 43 42 42 41 40 41 41 41 42 44 42 41 42 46 45 42
14 13 8 7 9 11 15 19 15 9 11 19 21 19 19 19 19 20 22 22 21 21 21 21 22 23 21 20 20 20 21 23 24 26 28 30 31 33 35 37 39 42 44 45 46 47 48 46 44 43 44 44 43 44 46 47 47 48 46 44 43 43 43 44 45 47 47 44 43 43 41 40 41 41 40 41 40 40 42 45 46 44 43 45 46 45
Wind_Direction
184 201 196 207 227 235 235 226 237 261 301 315 296 278 276 281 278 274 277 279 279 279 275 274 280 285 287 285 280 277 274 269 270 275 280 281 281 278 277 279 285 298 302 306 312 317 320 321 324 323 321 317 311 302 291 283 277 273 270 265 261 260 258 255 253 250 247 246 244 244 244 244 244 244 243 243 243 242 242 242 242 242 241 240 239 238
193 225 216 221 238 251 268 266 261 272 283 275 269 277 274 270 276 275 277 285 303 288 280 279 285 290 291 285 276 269 267 267 271 275 277 277 274 272 277 298 329 316 312 319 326 335 349 2 12 4 1 359 353 342 319 306 293 283 275 270 269 267 264 262 261 258 255 253 251 249 248 248 247 246 246 245 244 244 243 242 241 241 241 239 239 238
212 231 227 230 240 268 326 277 270 262 262 265 263 272 273 274 284 277 265 280 328 295 293 299 294 294 286 277 273 269 263 264 267 264 263 264 265 274 309 332 320 316 323 336 357 32 56 63 56 35 30 24 18 16 6 354 336 314 296 283 278 274 272 270 268 265 264 261 259 256 254 253 252 251 249 247 246 245 244 243 242 242 241 240 239 238
237 224 227 236 235 235 247 236 250 268 259 248 248 263 275 277 282 277 252 294 348 276 289 303 296 285 275 267 272 278 259 255 263 259 257 259 267 295 318 317 317 327 345 11 46 60 64 67 62 54 49 47 43 39 34 27 16 1 338 311 289 277 274 274 272 271 270 267 264 261 258 256 255 255 254 252 250 248 246 245 244 243 242 241 239 239
249 210 194 232 220 224 244 241 234 259 260 241 233 249 267 267 267 273 285 320 311 275 282 314 301 278 266 215 62 298 243 248 268 264 261 267 301 321 324 333 344 352 12 56 67 63 71 73 68 65 62 59 56 51 48 44 37 31 19 358 325 293 278 274 275 276 275 271 267 263 260 258 256 255 255 254 252 250 248 247 246 245 243 242 240 240
256 239 185 187 190 206 227 239 230 234 260 259 223 225 248 263 269 275 289 318 309 276 51 352 318 286 169 103 16 301 285 278 271 265 271 336 8 356 353 345 356 15 43 76 74 74 80 76 68 65 62 59 57 54 52 50 46 42 37 31 17 348 313 291 282 279 278 276 273 268 265 261 259 259 258 257 256 254 253 251 250 249 247 245 242 240
256 238 199 195 196 182 202 244 233 213 249 270 220 216 241 258 265 272 290 304 293 290 41 23 307 286 253 244 258 272 274 268 264 269 293 344 4 5 358 356 36 61 62 67 76 83 79 68 63 60 59 58 58 58 57 54 49 44 41 39 35 26 9 339 309 292 283 280 277 275 273 270 267 266 266 265 264 263 261 259 257 256 254 251 247 243
205 175 98 167 192 185 209 246 225 188 226 267 53 187 240 257 262 261 279 267 275 313 306 188 229 273 282 252 219 242 245 249 259 283 323 15 30 33 40 45 56 59 55 64 78 80 71 60 58 58 58 59 57 58 55 50 46 42 40 38 36 35 29 17 354 325 303 290 284 280 278 275 273 272 270 270 269 268 267 265 263 261 259 256 253 248
170 180 174 175 183 205 218 239 173 176 217 297 53 48 167 267 271 220 256 263 277 312 283 189 189 261 283 245 133 227 235 240 257 289 2 46 48 44 50 51 48 48 52 68 79 76 67 59 57 58 57 56 55 53 47 43 40 37 35 34 34 33 30 26 15 357 334 310 295 287 281 277 276 274 272 270 271 270 269 267 266 264 261 259 256 253
165 180 190 180 194 223 216 142 139 184 211 90 115 95 86 98 60 156 265 286 279 281 264 180 179 252 290 239 137 209 245 246 252 174 60 81 76 49 45 46 43 48 56 68 76 71 63 58 56 55 52 53 54 49 43 39 34 31 29 28 27 28 28 25 19 9 355 334 312 298 290 284 282 278 274 272 271 270 269 268 267 266 264 262 260 258
149 90 108 207 224 232 116 79 82 178 148 120 150 123 106 180 84 158 266 315 275 272 243 175 187 226 286 331 151 206 245 346 346 1 355 81 88 52 42 45 42 48 58 64 66 61 57 57 53 47 45 47 49 45 41 36 31 27 24 22 21 21 21 20 19 13 3 348 330 316 303 295 290 283 278 276 274 272 270 270 269 268 267 266 264 262
179 178 210 226 226 197 105 111 54 75 113 146 147 327 297 262 242 213 192 137 252 271 258 154 193 222 245 243 102 308 352 339 323 347 339 3 60 51 41 48 48 52 57 59 59 52 49 48 45 41 40 41 41 41 38 35 31 26 22 19 17 15 14 14 13 11 6 357 344 330 315 306 297 288 282 280 279 275 273 273 271 270 270 269 268 265
195 202 192 219 222 193 174 174 128 108 151 174 156 261 291 304 295 253 222 198 247 267 71 64 285 237 245 253 266 276 288 38 24 344 338 7 53 57 48 51 55 58 58 56 54 49 46 45 43 39 37 37 38 38 36 33 30 27 24 20 16 15 13 10 9 8 5 0 353 342 326 315 305 295 288 285 283 280 278 276 272 271 271 271 271 270
243 213 154 165 234 191 185 192 204 191 170 177 178 174 191 235 274 267 267 275 271 273 95 138 248 252 265 269 246 259 294 11 356 338 2 60 73 63 54 54 57 61 60 57 55 52 49 46 43 40 38 38 38 37 36 34 32 29 26 22 18 17 15 11 9 7 4 360 356 350 338 326 313 305 299 292 287 283 282 279 276 274 273 273 274 274
258 282 175 172 179 170 186 208 198 120 158 184 173 166 192 195 238 261 253 257 275 278 166 150 204 263 283 342 217 251 25 20 4 18 60 73 69 60 55 54 54 56 57 57 55 53 51 47 44 43 41 40 39 37 35 34 34 33 30 26 20 16 13 10 7 4 2 359 355 350 344 333 319 310 306 301 296 290 286 283 280 277 276 276 276 276
238 262 169 123 100 160 183 210 127 102 169 188 109 177 235 203 197 246 246 240 282 295 241 198 231 268 277 297 282 271 80 68 51 58 66 63 58 57 53 49 49 52 53 54 53 52 52 50 47 45 44 43 40 37 36 34 34 33 31 28 22 17 13 8 4 1 359 356 353 349 344 337 325 312 305 303 302 298 294 289 284 281 279 278 277 277
243 255 99 64 286 174 184 7 110 159 231 148 153 197 228 131 169 246 258 215 280 279 252 237 257 268 278 283 266 243 114 83 61 56 61 58 59 60 52 45 47 50 52 53 53 52 51 49 48 46 45 43 40 39 38 36 35 34 31 29 26 21 16 11 5 358 354 352 348 346 344 339 331 320 308 301 299 299 297 293 290 287 283 281 280 279
278 278 212 153 214 201 16 1 46 346 67 147 187 216 126 35 136 232 264 182 209 249 247 242 259 271 283 282 196 129 103 83 69 65 64 54 52 54 49 44 46 49 51 51 51 50 49 48 46 45 42 40 39 37 35 34 34 32 30 27 22 18 15 12 7 1 355 350 346 345 344 340 335 327 317 305 299 297 293 292 293 292 289 287 285 283
334 285 263 168 209 119 103 247 231 145 106 144 248 310 10 236 235 201 217 219 227 248 243 219 245 260 258 261 261 91 79 70 63 59 55 46 46 46 43 43 48 51 50 48 47 45 43 41 39 39 38 36 34 31 30 29 25 22 20 18 16 14 13 10 6 3 359 354 351 348 346 344 340 334 324 312 304 298 294 294 295 293 292 291 289 287
16 274 276 84 76 79 127 215 221 169 150 138 230 280 18 257 258 230 209 237 234 251 255 228 231 241 251 265 76 83 70 64 56 50 48 44 47 48 44 44 48 52 51 48 46 42 39 37 35 33 31 29 27 25 23 20 17 16 15 13 13 12 10 7 5 4 1 360 358 355 352 350 347 343 336 326 316 307 300 298 298 296 295 294 291 289
99 251 265 250 123 261 215 201 209 193 184 198 211 219 214 202 242 268 258 216 230 253 259 254 245 234 252 42 96 103 89 84 81 76 69 51 50 51 46 47 49 50 49 46 44 40 36 34 31 27 24 21 19 17 15 14 12 11 11 11 12 10 8 7 6 5 4 2 1 359 357 355 353 350 346 341 333 324 314 305 298 295 295 294 292 291
255 243 256 261 247 248 250 175 163 214 217 237 243 235 248 253 261 269 253 214 218 242 240 253 257 244 316 62 98 108 104 104 102 100 98 76 63 54 50 54 52 47 43 39 35 31 27 24 20 17 14 11 9 8 7 7 5 4 3 4 5 5 5 5 4 4 3 0 358 357 356 355 355 354 351 349 346 341 333 322 310 300 293 289 289 289
357 266 253 261 251 256 276 325 104 231 249 248 250 250 259 262 254 260 264 257 248 243 236 254 255 242 67 69 100 109 112 111 103 103 107 101 92 75 62 60 55 49 43 35 29 24 19 15 10 6 4 2 1 360 358 358 358 357 356 355 355 357 359 0 1 2 1 1 359 356 353 351 351 351 351 351 350 349 345 338 329 316 303 294 288 286
27 256 255 260 260 266 272 274 90 79 228 227 244 259 268 270 273 272 272 285 275 248 249 260 254 235 124 114 113 114 116 110 104 105 109 105 95 83 67 57 52 48 42 33 27 21 15 10 4 359 356 353 352 352 351 351 351 350 350 350 349 349 350 351 351 352 352 353 353 352 350 348 345 344 344 346 348 349 347 344 339 332 321 309 300 291
296 265 284 283 273 267 257 236 132 87 99 276 293 309 317 311 322 318 287 270 256 230 234 250 261 247 143 154 146 136 133 126 119 110 103 97 82 70 63 53 45 39 34 28 22 16 11 6 2 358 355 352 350 349 348 347 346 346 347 347 347 346 346 345 344 344 344 344 345 346 347 347 345 342 339 339 341 343 345 345 343 339 333 324 314 303
273 253 272 280 269 267 271 271 265 90 34 339 292 281 282 289 304 310 293 277 269 245 245 257 275 291 256 249 243 190 144 120 116 107 94 92 84 70 63 54 44 36 29 22 17 14 9 3 1 359 357 355 352 350 347 345 345 345 345 346 347 347 347 346 345 344 344 344 344 344 345 346 346 345 342 339 335 336 338 341 343 343 340 334 326 317
218 243 228 246 261 267 275 279 285 303 280 277 277 274 273 274 275 272 264 264 276 291 280 263 269 279 286 289 284 276 39 55 82 91 81 94 97 74 61 49 39 33 26 20 17 13 10 7 3 358 354 352 351 349 347 345 345 344 344 344 345 345 346 346 346 346 345 345 344 343 343 343 344 344 344 342 339 336 333 333 336 339 340 339 335 329
213 250 230 238 256 260 270 278 286 305 272 270 278 276 274 274 265 254 255 261 275 288 277 264 271 274 276 281 285 298 39 39 52 65 43 259 242 251 294 323 341 351 351 356 357 354 357 360 358 355 353 350 347 346 345 344 344 343 342 342 342 342 343 342 342 344 343 342 342 342 341 341 341 340 339 339 339 337 335 333 331 332 334 336 337 336
234 264 251 256 268 266 274 283 284 287 277 269 270 272 276 277 268 259 258 258 262 267 267 274 278 275 276 281 288 348 57 35 15 10 334 305 275 256 272 291 299 314 325 332 339 345 350 349 347 346 346 347 346 345 344 343 343 341 340 341 340 339 339 338 338 339 339 338 338 338 337 338 337 337 336 336 335 335 334 333 332 331 330 331 333 335
237 257 260 283 286 280 282 284 285 287 282 273 268 269 272 271 270 269 267 264 263 261 262 268 269 271 279 296 5 61 42 5 351 333 321 320 305 285 279 282 283 292 304 310 319 332 339 339 339 337 336 338 340 340 341 339 339 338 337 337 337 336 336 335 334 334 334 334 334 333 333 333 333 334 334 334 333 333 332 330 330 330 329 329 329 330
265 254 30 359 303 285 278 281 286 287 282 280 277 270 265 265 267 269 268 266 264 261 261 261 263 267 277 73 82 60 353 339 333 324 318 314 304 294 285 284 285 286 293 305 316 325 329 330 331 331 330 331 331 331 333 332 332 332 331 330 330 330 330 329 329 329 328 329 329 328 328 327 327 328 330 330 331 330 330 330 328 327 327 326 326 326
283 276 348 332 287 272 279 287 291 293 289 282 271 263 258 258 259 258 258 259 260 263 265 263 263 265 148 108 80 357 350 325 320 318 315 308 300 293 288 288 290 294 302 312 320 324 326 326 326 326 326 326 327 327 327 326 326 326 325 323 323 322 323 323 322 322 322 323 323 322 322 321 321 322 323 324 325 325 327 327 327 326 325 323 323 323
228 248 291 294 273 274 285 301 328 322 298 273 258 255 252 252 253 253 253 256 258 261 269 271 271 266 122 127 30 351 334 310 315 315 312 311 307 300 299 298 296 299 307 314 318 322 324 326 326 325 324 324 323 323 323 323 322 322 321 319 319 318 318 318 316 316 315 316 316 316 316 316 316 317 317 318 319 319 320 321 322 324 324 322 321 320
234 253 262 256 263 274 288 37 61 272 264 262 272 291 262 264 266 262 258 261 262 258 275 291 132 143 157 164 219 315 296 276 289 295 297 303 302 299 302 301 296 295 303 311 316 318 320 322 324 324 324 323 321 319 319 320 320 319 318 317 317 316 316 316 315 314 313 312 311 310 310 309 310 311 312 313 313 313 313 314 315 317 318 319 319 318
252 255 252 237 250 272 330 41 257 249 245 295 3 80 178 290 279 268 265 263 237 137 163 169 159 170 182 198 241 282 288 277 273 275 284 298 304 302 302 301 295 289 295 306 311 313 314 315 315 318 319 320 318 316 316 317 317 316 315 314 314 314 314 314 313 313 313 312 310 308 306 305 304 305 306 307 307 307 307 308 309 310 311 312 313 315
247 247 235 208 216 246 225 217 238 264 330 311 289 227 150 247 250 258 266 244 176 180 198 192 181 184 202 263 290 294 287 278 267 264 274 292 306 306 303 300 293 284 284 297 305 309 313 310 308 310 313 313 313 314 314 314 312 310 309 309 309 310 311 311 311 311 312 312 311 310 307 304 302 301 301 302 302 302 303 304 305 305 306 306 305 306
229 230 220 218 215 223 232 227 244 305 321 298 282 233 140 234 243 266 291 238 183 193 199 181 186 220 285 305 314 315 298 279 270 268 272 286 303 310 309 305 297 285 280 288 297 305 310 309 305 305 307 307 307 309 310 310 308 306 305 305 306 306 307 307 307 307 308 309 309 308 306 304 302 300 300 299 299 299 299 300 301 302 303 304 302 301
219 219 207 219 229 207 223 246 259 272 277 288 297 252 192 295 343 9 300 266 183 185 189 165 196 267 290 299 305 310 300 282 281 284 286 294 306 314 316 314 308 296 285 285 289 296 302 302 299 298 299 299 300 302 304 305 306 307 306 306 307 307 307 305 305 306 306 306 305 304 303 302 300 299 298 298 298 297 297 296 296 297 299 300 300 299
206 218 209 223 242 218 220 244 246 250 263 253 219 244 186 173 99 44 286 294 156 175 185 179 255 272 268 277 286 291 290 281 285 293 299 304 310 316 318 319 316 309 298 289 286 289 294 297 296 295 295 295 295 298 301 303 306 307 307 307 308 308 307 306 306 307 306 304 302 300 299 298 297 296 296 295 295 295 295 295 294 294 295 295 296 296
171 200 205 216 233 234 238 248 248 259 278 230 231 257 152 132 119 285 282 291 149 182 193 195 239 266 267 271 276 271 262 272 286 296 299 302 308 314 319 319 315 310 304 297 290 289 293 297 298 297 294 293 294 297 301 305 307 307 307 308 308 306 306 306 307 306 304 301 299 297 296 295 293 293 293 293 293 293 293 293 293 293 293 292 293 293
151 189 207 216 230 235 240 248 253 262 266 253 265 268 141 116 130 257 264 248 165 206 226 225 238 259 267 265 263 260 265 277 286 291 293 295 302 310 314 313 309 305 303 300 296 295 296 297 298 297 296 296 299 302 305 307 308 307 306 307 306 305 305 305 304 301 299 298 296 295 293 292 290 290 289 289 289 290 290 290 290 290 290 290 290 291
166 181 221 219 227 234 241 251 261 273 262 250 264 255 149 158 266 250 262 339 284 256 270 262 250 255 258 254 261 275 281 285 288 288 288 292 299 306 308 307 305 302 300 298 297 298 300 300 299 299 298 299 301 303 306 307 307 305 305 304 303 303 303 301 299 297 296 294 293 292 291 290 288 287 286 286 285 285 285 286 286 287 287 287 288 288
177 184 225 210 200 215 238 241 247 273 248 208 210 171 161 202 252 277 309 315 307 296 286 267 258 263 262 265 279 285 284 287 288 287 288 292 298 302 302 302 301 299 299 299 299 301 304 303 302 301 300 300 302 304 305 306 305 303 303 302 301 302 300 297 296 295 293 292 291 290 288 287 287 286 285 284 284 282 282 281 281 281 282 284 285 285
186 202 232 222 178 186 225 225 209 251 237 187 184 216 225 219 244 285 299 302 303 302 297 288 285 289 291 292 291 285 283 285 287 288 291 294 297 299 299 299 299 299 300 301 302 304 306 305 304 303 301 302 303 304 304 303 303 302 300 300 300 299 297 295 294 293 291 290 289 289 288 287 287 286 284 284 283 282 280 279 279 278 278 279 280 282
208 212 230 248 210 191 244 257 205 192 239 213 208 240 261 261 273 288 295 292 292 295 296 293 292 295 297 295 287 282 282 283 286 289 292 294 296 297 298 298 299 301 302 302 304 305 305 305 304 303 303 304 304 303 302 302 302 301 299 299 298 296 294 293 293 291 290 289 288 287 287 287 286 284 283 282 282 281 280 279 279 278 277 276 277 278
234 228 225 274 243 232 263 264 246 241 257 257 255 261 270 276 282 288 290 286 285 289 291 289 289 292 293 289 283 281 282 284 289 291 292 294 295 296 299 300 302 303 304 305 306 306 306 305 304 304 303 304 303 303 302 302 302 301 301 300 298 296 295 294 293 292 291 290 289 288 287 286 285 283 282 281 280 279 279 279 279 278 278 278 277 276
247 229 206 228 248 254 262 255 240 242 254 259 265 271 273 277 280 283 284 284 286 287 288 288 288 286 284 280 279 283 287 290 292 294 295 297 298 300 303 305 306 307 308 308 308 307 306 305 304 304 304 303 303 303 303 303 303 303 303 302 301 300 300 299 297 296 294 293 292 290 288 287 285 284 284 283 282 281 280 279 278 278 278 278 277 277
234 208 198 221 237 239 253 262 260 258 260 263 267 271 274 276 278 279 280 281 283 285 285 285 283 278 277 281 285 290 293 294 296 298 300 300 301 304 307 307 308 309 308 307 306 306 306 306 305 305 304 303 304 305 305 306 306 306 306 307 307 308 306 304 302 300 298 297 297 296 294 293 291 290 289 288 285 282 279 277 275 273 272 272 272 272
210 192 174 196 234 238 250 263 264 264 268 267 263 262 268 275 277 277 277 277 278 280 280 278 277 278 283 289 292 293 295 296 299 301 300 301 303 306 307 308 308 307 306 306 306 306 307 307 307 306 305 306 307 309 309 309 310 311 313 313 312 311 307 305 305 303 302 303 303 302 301 300 297 295 293 290 287 282 278 275 271 268 268 269 267 265
208 232 191 178 241 248 242 248 249 252 270 270 266 266 271 276 276 275 275 275 273 272 272 272 276 283 288 291 293 294 296 299 301 300 300 302 305 306 306 307 306 306 306 307 307 308 308 309 308 308 308 309 311 313 314 315 315 317 317 316 313 310 308 307 307 306 305 305 303 301 300 298 295 293 290 289 287 284 281 280 276 271 269 269 268 265
220 234 212 203 236 247 249 249 242 234 259 271 278 285 285 280 276 274 273 273 271 269 272 275 279 285 288 290 293 295 297 299 301 301 302 304 304 305 305 305 306 306 308 309 310 310 310 310 311 311 312 314 317 319 320 320 320 320 319 317 314 311 309 309 308 306 304 302 300 298 297 294 292 291 289 288 287 285 284 284 283 280 276 273 273 270